Location: Killam
(52.7910°N, 111.8608°W)
Time: 00:08:22
(UTC+00:00)

A-11 Canister half - Pass Details

Date: 20 February 2026
Orbit: 1525 x 1683 km, 47.3° (Epoch: 9 March)

Event Time Altitude Azimuth Distance (km) Brightness Sun altitude
Rises 06:48:29 0° 284° (WNW) 4,680 11.9 -46.8°
Reaches altitude 10° 06:52:54 10° 266° (W) 3,701 11.1 -47.0°
Enters shadow 06:53:14 11° 264° (W) 3,646 11.0 -47.0°
Maximum altitude 06:58:13 17° 231° (SW) 3,200 - -47.2°
Drops below altitude 10° 07:03:35 10° 195° (SSW) 3,736 - -47.4°
Sets 07:08:07 0° 177° (S) 4,743 - -47.6°
